Time,TemperatureF,DewpointF,PressureIn,WindDirection,WindDirectionDegrees,WindSpeedMPH,WindSpeedGustMPH,Humidity,HourlyPrecipIn,Conditions,Clouds,dailyrainin,SoftwareType,DateUTC
2013-02-13 00:01:00,43.7,43.0,30.28,East,90,0.0,2.0,97,0.00,,,0.08,meteohub,2013-02-13 08:01:00,
2013-02-13 00:06:00,43.3,42.3,30.29,East,90,0.0,2.0,96,0.00,,,0.00,meteohub,2013-02-13 08:06:00,
2013-02-13 00:11:00,43.2,42.4,30.29,East,90,0.0,0.0,97,0.00,,,0.00,meteohub,2013-02-13 08:11:00,
2013-02-13 00:16:00,43.0,42.3,30.28,East,90,2.0,0.0,97,0.00,,,0.00,meteohub,2013-02-13 08:16:00,
2013-02-13 00:21:00,43.3,42.8,30.28,East,90,1.0,2.0,98,0.00,,,0.00,meteohub,2013-02-13 08:21:00,
2013-02-13 00:26:00,43.2,42.6,30.28,East,90,0.0,2.0,98,0.00,,,0.00,meteohub,2013-02-13 08:26:00,
2013-02-13 00:31:00,43.3,42.8,30.28,East,90,0.0,2.0,98,0.00,,,0.00,meteohub,2013-02-13 08:31:00,
2013-02-13 00:36:00,43.3,42.8,30.28,East,90,2.0,2.0,98,0.00,,,0.00,meteohub,2013-02-13 08:36:00,
2013-02-13 00:41:00,43.3,42.6,30.27,East,90,3.0,3.0,97,0.00,,,0.00,meteohub,2013-02-13 08:41:00,
2013-02-13 00:46:00,43.3,42.3,30.28,East,90,2.0,3.0,96,0.00,,,0.00,meteohub,2013-02-13 08:46:00,
2013-02-13 00:51:00,43.2,41.9,30.28,East,90,2.0,3.0,95,0.00,,,0.00,meteohub,2013-02-13 08:51:00,
2013-02-13 00:56:00,43.0,41.7,30.28,East,90,1.0,3.0,95,0.00,,,0.00,meteohub,2013-02-13 08:56:00,
2013-02-13 01:01:00,42.8,41.5,30.27,East,90,2.0,2.0,95,0.00,,,0.00,meteohub,2013-02-13 09:01:00,
2013-02-13 01:06:00,42.8,41.2,30.27,East,90,0.0,2.0,94,0.00,,,0.00,meteohub,2013-02-13 09:06:00,
2013-02-13 01:11:00,42.6,41.0,30.27,East,90,2.0,2.0,94,0.00,,,0.00,meteohub,2013-02-13 09:11:00,
2013-02-13 01:16:00,42.6,40.8,30.27,East,90,2.0,2.0,93,0.00,,,0.00,meteohub,2013-02-13 09:16:00,
2013-02-13 01:21:00,42.8,41.0,30.27,East,90,0.0,2.0,93,0.00,,,0.00,meteohub,2013-02-13 09:21:00,
2013-02-13 01:27:00,42.8,41.0,30.27,East,90,0.0,2.0,93,0.00,,,0.00,meteohub,2013-02-13 09:27:00,
2013-02-13 01:32:00,42.8,41.0,30.27,East,90,0.0,2.0,93,0.00,,,0.00,meteohub,2013-02-13 09:32:00,
2013-02-13 01:37:00,42.8,40.6,30.27,East,90,0.0,2.0,92,0.00,,,0.00,meteohub,2013-02-13 09:37:00,
2013-02-13 01:42:00,42.6,40.5,30.27,East,90,0.0,2.0,92,0.00,,,0.00,meteohub,2013-02-13 09:42:00,
2013-02-13 01:47:00,42.4,40.6,30.27,East,90,0.0,2.0,93,0.00,,,0.00,meteohub,2013-02-13 09:47:00,
2013-02-13 01:52:00,42.3,40.5,30.27,East,90,0.0,1.0,93,0.00,,,0.00,meteohub,2013-02-13 09:52:00,
2013-02-13 01:57:00,42.1,39.9,30.27,East,90,2.0,2.0,92,0.00,,,0.00,meteohub,2013-02-13 09:57:00,
2013-02-13 02:02:00,42.1,39.9,30.27,East,90,1.0,2.0,92,0.00,,,0.00,meteohub,2013-02-13 10:02:00,
2013-02-13 02:07:00,41.9,39.7,30.26,East,90,0.0,2.0,92,0.00,,,0.00,meteohub,2013-02-13 10:07:00,
2013-02-13 02:12:00,41.7,39.6,30.27,East,90,0.0,2.0,92,0.00,,,0.00,meteohub,2013-02-13 10:12:00,
2013-02-13 02:17:00,41.5,39.7,30.26,East,90,0.0,1.0,93,0.00,,,0.00,meteohub,2013-02-13 10:17:00,
2013-02-13 02:22:00,41.5,39.7,30.26,East,90,0.0,1.0,93,0.00,,,0.00,meteohub,2013-02-13 10:22:00,
2013-02-13 02:27:00,41.4,39.6,30.26,East,90,1.0,1.0,93,0.00,,,0.00,meteohub,2013-02-13 10:27:00,
2013-02-13 02:32:00,41.5,39.7,30.26,East,90,0.0,1.0,93,0.00,,,0.00,meteohub,2013-02-13 10:32:00,
2013-02-13 02:37:00,41.4,39.2,30.25,East,90,0.0,1.0,92,0.00,,,0.00,meteohub,2013-02-13 10:37:00,
2013-02-13 02:42:00,41.0,38.8,30.25,East,90,0.0,1.0,92,0.00,,,0.00,meteohub,2013-02-13 10:42:00,
2013-02-13 02:46:00,40.6,38.5,30.25,East,90,0.0,0.0,92,0.00,,,0.00,meteohub,2013-02-13 10:46:00,
2013-02-13 02:52:00,40.5,38.7,30.26,East,90,0.0,0.0,93,0.00,,,0.00,meteohub,2013-02-13 10:52:00,
2013-02-13 02:57:00,40.5,38.7,30.26,East,90,0.0,0.0,93,0.00,,,0.00,meteohub,2013-02-13 10:57:00,
2013-02-13 03:02:00,40.5,38.7,30.26,East,90,0.0,0.0,93,0.00,,,0.00,meteohub,2013-02-13 11:02:00,
2013-02-13 03:07:00,40.5,38.7,30.25,East,90,0.0,0.0,93,0.00,,,0.00,meteohub,2013-02-13 11:07:00,
2013-02-13 03:12:00,40.5,38.7,30.25,East,90,0.0,1.0,93,0.00,,,0.00,meteohub,2013-02-13 11:12:00,
2013-02-13 03:17:00,40.5,38.7,30.25,East,90,0.0,1.0,93,0.00,,,0.00,meteohub,2013-02-13 11:17:00,
2013-02-13 03:22:00,40.3,38.5,30.26,East,90,0.0,1.0,93,0.00,,,0.00,meteohub,2013-02-13 11:22:00,
2013-02-13 03:27:00,40.1,38.3,30.25,East,90,2.0,2.0,93,0.00,,,0.00,meteohub,2013-02-13 11:27:00,
2013-02-13 03:32:00,40.3,38.5,30.25,East,90,1.0,2.0,93,0.00,,,0.00,meteohub,2013-02-13 11:32:00,
2013-02-13 03:37:00,40.3,38.5,30.26,East,90,0.0,2.0,93,0.00,,,0.00,meteohub,2013-02-13 11:37:00,
2013-02-13 03:42:00,40.3,38.5,30.26,East,90,0.0,2.0,93,0.00,,,0.00,meteohub,2013-02-13 11:42:00,
2013-02-13 03:47:00,40.3,38.5,30.25,East,90,0.0,1.0,93,0.00,,,0.00,meteohub,2013-02-13 11:47:00,
2013-02-13 03:52:00,40.1,38.3,30.25,East,90,0.0,0.0,93,0.00,,,0.00,meteohub,2013-02-13 11:52:00,
2013-02-13 03:57:00,39.9,38.1,30.25,East,90,0.0,0.0,93,0.00,,,0.00,meteohub,2013-02-13 11:57:00,
2013-02-13 04:02:00,39.7,37.9,30.25,East,90,0.0,0.0,93,0.00,,,0.00,meteohub,2013-02-13 12:02:00,
2013-02-13 04:07:00,39.2,37.4,30.25,East,90,0.0,0.0,93,0.00,,,0.00,meteohub,2013-02-13 12:07:00,
2013-02-13 04:12:00,38.7,36.9,30.25,East,90,0.0,0.0,93,0.00,,,0.00,meteohub,2013-02-13 12:12:00,
2013-02-13 04:17:00,39.0,37.8,30.25,East,90,0.0,0.0,95,0.00,,,0.00,meteohub,2013-02-13 12:17:00,
2013-02-13 04:22:00,39.4,38.3,30.25,East,90,0.0,0.0,96,0.00,,,0.00,meteohub,2013-02-13 12:22:00,
2013-02-13 04:27:00,39.6,38.5,30.25,East,90,0.0,0.0,96,0.00,,,0.00,meteohub,2013-02-13 12:27:00,
2013-02-13 04:32:00,39.7,38.7,30.25,East,90,0.0,0.0,96,0.00,,,0.00,meteohub,2013-02-13 12:32:00,
2013-02-13 04:37:00,39.6,38.5,30.25,East,90,0.0,2.0,96,0.00,,,0.00,meteohub,2013-02-13 12:37:00,
2013-02-13 04:42:00,39.6,38.3,30.25,East,90,0.0,2.0,95,0.00,,,0.00,meteohub,2013-02-13 12:42:00,
2013-02-13 04:47:00,39.7,38.5,30.25,East,90,2.0,2.0,95,0.00,,,0.00,meteohub,2013-02-13 12:47:00,
2013-02-13 04:52:00,39.7,38.5,30.25,East,90,3.0,3.0,95,0.00,,,0.00,meteohub,2013-02-13 12:52:00,
2013-02-13 04:57:00,39.9,38.7,30.25,East,90,3.0,3.0,95,0.00,,,0.00,meteohub,2013-02-13 12:57:00,
2013-02-13 05:02:00,39.9,38.3,30.25,East,90,0.0,3.0,94,0.00,,,0.00,meteohub,2013-02-13 13:02:00,
2013-02-13 05:07:00,39.6,37.9,30.25,East,90,2.0,3.0,94,0.00,,,0.00,meteohub,2013-02-13 13:07:00,
2013-02-13 05:12:00,39.6,37.9,30.25,East,90,2.0,3.0,94,0.00,,,0.00,meteohub,2013-02-13 13:12:00,
2013-02-13 05:17:00,39.6,37.9,30.25,East,90,0.0,2.0,94,0.00,,,0.00,meteohub,2013-02-13 13:17:00,
2013-02-13 05:22:00,39.6,37.8,30.25,East,90,2.0,2.0,93,0.00,,,0.00,meteohub,2013-02-13 13:22:00,
2013-02-13 05:27:00,39.2,37.4,30.25,East,90,0.0,2.0,93,0.00,,,0.00,meteohub,2013-02-13 13:27:00,
2013-02-13 05:32:00,39.0,37.2,30.25,East,90,0.0,2.0,93,0.00,,,0.00,meteohub,2013-02-13 13:32:00,
2013-02-13 05:37:00,39.0,37.4,30.25,East,90,2.0,2.0,94,0.00,,,0.00,meteohub,2013-02-13 13:37:00,
2013-02-13 05:42:00,39.2,37.6,30.25,East,90,0.0,2.0,94,0.00,,,0.00,meteohub,2013-02-13 13:42:00,
2013-02-13 05:47:00,39.0,37.4,30.26,East,90,0.0,2.0,94,0.00,,,0.00,meteohub,2013-02-13 13:47:00,
2013-02-13 05:52:00,39.0,37.4,30.26,East,90,2.0,2.0,94,0.00,,,0.00,meteohub,2013-02-13 13:52:00,
2013-02-13 05:57:00,39.2,37.6,30.26,East,90,2.0,2.0,94,0.00,,,0.00,meteohub,2013-02-13 13:57:00,
2013-02-13 06:02:00,39.4,37.6,30.26,East,90,2.0,2.0,93,0.00,,,0.00,meteohub,2013-02-13 14:02:00,
2013-02-13 06:07:00,39.4,37.6,30.27,East,90,0.0,2.0,93,0.00,,,0.00,meteohub,2013-02-13 14:07:00,
2013-02-13 06:12:00,39.2,37.4,30.26,East,90,2.0,2.0,93,0.00,,,0.00,meteohub,2013-02-13 14:12:00,
2013-02-13 06:17:00,39.2,37.4,30.26,East,90,0.0,2.0,93,0.00,,,0.00,meteohub,2013-02-13 14:17:00,
2013-02-13 06:22:00,39.4,37.6,30.27,East,90,2.0,2.0,93,0.00,,,0.00,meteohub,2013-02-13 14:22:00,
2013-02-13 06:27:00,39.7,37.6,30.26,East,90,2.0,2.0,92,0.00,,,0.00,meteohub,2013-02-13 14:27:00,
2013-02-13 06:32:00,39.7,37.4,30.26,East,90,1.0,2.0,91,0.00,,,0.00,meteohub,2013-02-13 14:32:00,
2013-02-13 06:37:00,39.6,37.2,30.27,East,90,0.0,2.0,91,0.00,,,0.00,meteohub,2013-02-13 14:37:00,
2013-02-13 06:42:00,39.0,36.7,30.26,East,90,0.0,2.0,91,0.00,,,0.00,meteohub,2013-02-13 14:42:00,
2013-02-13 06:47:00,39.0,36.9,30.26,East,90,0.0,1.0,92,0.00,,,0.00,meteohub,2013-02-13 14:47:00,
2013-02-13 06:52:00,39.2,37.0,30.27,East,90,0.0,0.0,92,0.00,,,0.00,meteohub,2013-02-13 14:52:00,
2013-02-13 06:57:00,39.2,37.0,30.27,East,90,0.0,0.0,92,0.00,,,0.00,meteohub,2013-02-13 14:57:00,
2013-02-13 07:02:00,39.4,37.6,30.27,East,90,0.0,1.0,93,0.00,,,0.00,meteohub,2013-02-13 15:02:00,
2013-02-13 07:07:00,39.9,37.8,30.27,East,90,2.0,2.0,92,0.00,,,0.00,meteohub,2013-02-13 15:07:00,
2013-02-13 07:12:00,41.5,38.8,30.27,East,90,2.0,3.0,90,0.00,,,0.00,meteohub,2013-02-13 15:12:00,
2013-02-13 07:17:00,43.9,40.6,30.27,East,90,2.0,3.0,88,0.00,,,0.00,meteohub,2013-02-13 15:17:00,
2013-02-13 07:22:00,45.7,40.8,30.27,SE,135,2.0,3.0,83,0.00,,,0.00,meteohub,2013-02-13 15:22:00,
2013-02-13 07:27:00,46.9,40.1,30.27,East,90,3.0,4.0,77,0.00,,,0.00,meteohub,2013-02-13 15:27:00,
2013-02-13 07:32:00,47.8,40.3,30.27,SE,135,3.0,4.0,75,0.00,,,0.00,meteohub,2013-02-13 15:32:00,
2013-02-13 07:37:00,48.6,40.3,30.28,SE,135,2.0,4.0,73,0.00,,,0.00,meteohub,2013-02-13 15:37:00,
2013-02-13 07:42:00,49.8,40.8,30.28,SE,135,3.0,4.0,71,0.00,,,0.00,meteohub,2013-02-13 15:42:00,
2013-02-13 07:47:00,50.4,40.6,30.28,ESE,113,5.0,5.0,69,0.00,,,0.00,meteohub,2013-02-13 15:47:00,
2013-02-13 07:52:00,51.1,41.2,30.28,SE,135,2.0,5.0,69,0.00,,,0.00,meteohub,2013-02-13 15:52:00,
2013-02-13 07:57:00,52.0,41.0,30.28,ESE,113,2.0,5.0,66,0.00,,,0.00,meteohub,2013-02-13 15:57:00,
2013-02-13 08:02:00,52.5,40.3,30.28,ESE,113,3.0,5.0,63,0.00,,,0.00,meteohub,2013-02-13 16:02:00,
2013-02-13 08:07:00,53.1,40.8,30.28,East,90,4.0,5.0,63,0.00,,,0.00,meteohub,2013-02-13 16:07:00,
2013-02-13 08:12:00,53.8,40.6,30.28,East,90,3.0,5.0,61,0.00,,,0.00,meteohub,2013-02-13 16:12:00,
2013-02-13 08:17:00,54.3,40.8,30.28,SE,135,3.0,5.0,60,0.00,,,0.00,meteohub,2013-02-13 16:17:00,
2013-02-13 08:22:00,54.9,41.2,30.28,SE,135,2.0,4.0,60,0.00,,,0.00,meteohub,2013-02-13 16:22:00,
2013-02-13 08:27:00,56.7,43.3,30.28,East,90,1.0,4.0,61,0.00,,,0.00,meteohub,2013-02-13 16:27:00,
2013-02-13 08:32:00,58.6,42.1,30.28,SE,135,2.0,4.0,54,0.00,,,0.00,meteohub,2013-02-13 16:32:00,
2013-02-13 08:37:00,58.5,41.4,30.28,SSE,158,2.0,4.0,53,0.00,,,0.00,meteohub,2013-02-13 16:37:00,
2013-02-13 08:42:00,57.7,41.2,30.28,SE,135,3.0,3.0,54,0.00,,,0.00,meteohub,2013-02-13 16:42:00,
2013-02-13 08:47:00,57.7,41.7,30.29,ESE,113,4.0,4.0,55,0.00,,,0.00,meteohub,2013-02-13 16:47:00,
2013-02-13 08:52:00,58.1,42.4,30.28,SE,135,3.0,5.0,56,0.00,,,0.00,meteohub,2013-02-13 16:52:00,
2013-02-13 08:57:00,58.1,43.0,30.28,SE,135,3.0,5.0,57,0.00,,,0.00,meteohub,2013-02-13 16:57:00,
2013-02-13 09:02:00,58.3,42.6,30.28,SE,135,3.0,5.0,56,0.00,,,0.00,meteohub,2013-02-13 17:02:00,
2013-02-13 09:07:00,59.0,42.8,30.28,SE,135,3.0,6.0,55,0.00,,,0.00,meteohub,2013-02-13 17:07:00,
2013-02-13 09:12:00,59.2,43.0,30.28,ESE,113,2.0,6.0,55,0.00,,,0.00,meteohub,2013-02-13 17:12:00,
2013-02-13 09:17:00,61.0,44.2,30.28,NE,45,2.0,6.0,54,0.00,,,0.00,meteohub,2013-02-13 17:17:00,
2013-02-13 09:22:00,61.7,42.8,30.28,East,90,2.0,4.0,50,0.00,,,0.00,meteohub,2013-02-13 17:22:00,
2013-02-13 09:27:00,62.2,43.9,30.28,East,90,2.0,4.0,51,0.00,,,0.00,meteohub,2013-02-13 17:27:00,
2013-02-13 09:32:00,63.5,43.5,30.28,East,90,2.0,4.0,48,0.00,,,0.00,meteohub,2013-02-13 17:32:00,
2013-02-13 09:37:00,64.0,43.3,30.28,East,90,2.0,4.0,47,0.00,,,0.00,meteohub,2013-02-13 17:37:00,
2013-02-13 09:42:00,64.6,43.3,30.28,East,90,2.0,2.0,46,0.00,,,0.00,meteohub,2013-02-13 17:42:00,
2013-02-13 09:47:00,64.8,41.7,30.28,South,180,2.0,2.0,43,0.00,,,0.00,meteohub,2013-02-13 17:47:00,
2013-02-13 09:52:00,64.2,40.6,30.28,South,180,3.0,3.0,42,0.00,,,0.00,meteohub,2013-02-13 17:52:00,
2013-02-13 09:57:00,65.1,42.1,30.28,North,0,3.0,3.0,43,0.00,,,0.00,meteohub,2013-02-13 17:57:00,
2013-02-13 10:02:00,64.8,41.7,30.28,North,0,1.0,3.0,43,0.00,,,0.00,meteohub,2013-02-13 18:02:00,
2013-02-13 10:07:00,64.6,41.0,30.28,NW,315,3.0,3.0,42,0.00,,,0.00,meteohub,2013-02-13 18:07:00,
2013-02-13 10:12:00,64.6,37.8,30.27,North,0,4.0,4.0,37,0.00,,,0.00,meteohub,2013-02-13 18:12:00,
2013-02-13 10:17:00,64.9,36.0,30.27,North,0,3.0,4.0,34,0.00,,,0.00,meteohub,2013-02-13 18:17:00,
2013-02-13 10:22:00,63.7,36.1,30.27,NW,315,3.0,4.0,36,0.00,,,0.00,meteohub,2013-02-13 18:22:00,
2013-02-13 10:27:00,63.5,36.7,30.27,West,270,2.0,4.0,37,0.00,,,0.00,meteohub,2013-02-13 18:27:00,
2013-02-13 10:32:00,63.0,37.6,30.27,West,270,6.0,6.0,39,0.00,,,0.00,meteohub,2013-02-13 18:32:00,
2013-02-13 10:37:00,63.0,38.3,30.27,North,0,2.0,6.0,40,0.00,,,0.00,meteohub,2013-02-13 18:37:00,
2013-02-13 10:41:00,63.9,37.0,30.27,West,270,2.0,6.0,37,0.00,,,0.00,meteohub,2013-02-13 18:41:00,
2013-02-13 10:47:00,63.3,37.2,30.27,West,270,4.0,6.0,38,0.00,,,0.00,meteohub,2013-02-13 18:47:00,
2013-02-13 10:52:00,63.0,37.0,30.27,West,270,4.0,7.0,38,0.00,,,0.00,meteohub,2013-02-13 18:52:00,
2013-02-13 10:57:00,63.9,39.7,30.26,WNW,293,8.0,8.0,41,0.00,,,0.00,meteohub,2013-02-13 18:57:00,
2013-02-13 11:02:00,63.1,40.8,30.26,NW,315,6.0,8.0,44,0.00,,,0.00,meteohub,2013-02-13 19:02:00,
2013-02-13 11:07:00,63.3,42.8,30.26,NW,315,6.0,8.0,47,0.00,,,0.00,meteohub,2013-02-13 19:07:00,
2013-02-13 11:12:00,63.9,42.1,30.26,NW,315,5.0,8.0,45,0.00,,,0.00,meteohub,2013-02-13 19:12:00,
2013-02-13 11:17:00,63.9,41.0,30.25,NW,315,6.0,8.0,43,0.00,,,0.00,meteohub,2013-02-13 19:17:00,
2013-02-13 11:22:00,64.2,41.2,30.25,West,270,8.0,10.0,43,0.00,,,0.00,meteohub,2013-02-13 19:22:00,
2013-02-13 11:27:00,65.3,41.0,30.25,West,270,7.0,10.0,41,0.00,,,0.00,meteohub,2013-02-13 19:27:00,
2013-02-13 11:32:00,65.3,40.3,30.25,WNW,293,7.0,10.0,40,0.00,,,0.00,meteohub,2013-02-13 19:32:00,
2013-02-13 11:37:00,65.5,39.9,30.25,West,270,8.0,9.0,39,0.00,,,0.00,meteohub,2013-02-13 19:37:00,
2013-02-13 11:41:00,65.7,40.1,30.25,NW,315,4.0,9.0,39,0.00,,,0.00,meteohub,2013-02-13 19:41:00,
2013-02-13 11:47:00,66.2,40.5,30.24,NW,315,3.0,9.0,39,0.00,,,0.00,meteohub,2013-02-13 19:47:00,
2013-02-13 11:52:00,66.4,39.4,30.24,West,270,5.0,8.0,37,0.00,,,0.00,meteohub,2013-02-13 19:52:00,
2013-02-13 11:57:00,66.6,38.8,30.24,NW,315,6.0,8.0,36,0.00,,,0.00,meteohub,2013-02-13 19:57:00,
2013-02-13 12:02:00,67.1,37.0,30.24,WNW,293,4.0,7.0,33,0.00,,,0.00,meteohub,2013-02-13 20:02:00,
2013-02-13 12:07:00,67.5,38.1,30.24,NW,315,6.0,8.0,34,0.00,,,0.00,meteohub,2013-02-13 20:07:00,
2013-02-13 12:12:00,66.7,38.3,30.23,NW,315,8.0,8.0,35,0.00,,,0.00,meteohub,2013-02-13 20:12:00,
2013-02-13 12:16:00,67.5,37.4,30.22,NW,315,6.0,9.0,33,0.00,,,0.00,meteohub,2013-02-13 20:16:00,
2013-02-13 12:22:00,68.2,34.7,30.22,West,270,8.0,9.0,29,0.00,,,0.00,meteohub,2013-02-13 20:22:00,
2013-02-13 12:27:00,67.6,36.7,30.22,NW,315,4.0,8.0,32,0.00,,,0.00,meteohub,2013-02-13 20:27:00,
2013-02-13 12:32:00,68.0,36.3,30.22,NW,315,8.0,9.0,31,0.00,,,0.00,meteohub,2013-02-13 20:32:00,
2013-02-13 12:37:00,68.7,37.6,30.22,NNW,338,7.0,9.0,32,0.00,,,0.00,meteohub,2013-02-13 20:37:00,
2013-02-13 12:42:00,68.4,38.1,30.22,NW,315,8.0,10.0,33,0.00,,,0.00,meteohub,2013-02-13 20:42:00,
2013-02-13 12:47:00,67.3,42.1,30.22,West,270,6.0,11.0,40,0.00,,,0.00,meteohub,2013-02-13 20:47:00,
2013-02-13 12:52:00,66.2,43.0,30.21,NW,315,6.0,11.0,43,0.00,,,0.00,meteohub,2013-02-13 20:52:00,
2013-02-13 12:57:00,65.7,43.7,30.21,WNW,293,6.0,11.0,45,0.00,,,0.00,meteohub,2013-02-13 20:57:00,
2013-02-13 13:02:00,65.5,44.2,30.20,South,180,7.0,12.0,46,0.00,,,0.00,meteohub,2013-02-13 21:02:00,
2013-02-13 13:07:00,65.1,43.9,30.20,NW,315,9.0,12.0,46,0.00,,,0.00,meteohub,2013-02-13 21:07:00,
2013-02-13 13:12:00,63.9,44.8,30.20,NW,315,8.0,12.0,50,0.00,,,0.00,meteohub,2013-02-13 21:12:00,
2013-02-13 13:16:00,63.9,45.9,30.20,West,270,8.0,11.0,52,0.00,,,0.00,meteohub,2013-02-13 21:16:00,
2013-02-13 13:22:00,63.7,45.7,30.20,West,270,9.0,11.0,52,0.00,,,0.00,meteohub,2013-02-13 21:22:00,
2013-02-13 13:27:00,63.7,45.1,30.19,NW,315,6.0,12.0,51,0.00,,,0.00,meteohub,2013-02-13 21:27:00,
2013-02-13 13:32:00,63.5,45.0,30.20,WNW,293,8.0,12.0,51,0.00,,,0.00,meteohub,2013-02-13 21:32:00,
2013-02-13 13:37:00,63.9,42.6,30.20,NW,315,8.0,12.0,46,0.00,,,0.00,meteohub,2013-02-13 21:37:00,
2013-02-13 13:42:00,64.0,43.3,30.20,West,270,9.0,11.0,47,0.00,,,0.00,meteohub,2013-02-13 21:42:00,
2013-02-13 13:46:00,63.7,43.7,30.19,West,270,7.0,11.0,48,0.00,,,0.00,meteohub,2013-02-13 21:46:00,
2013-02-13 13:52:00,63.9,43.7,30.19,NW,315,8.0,13.0,48,0.00,,,0.00,meteohub,2013-02-13 21:52:00,
2013-02-13 13:57:00,63.3,45.0,30.19,West,270,10.0,13.0,51,0.00,,,0.00,meteohub,2013-02-13 21:57:00,
2013-02-13 14:02:00,63.3,44.4,30.19,WNW,293,5.0,12.0,50,0.00,,,0.00,meteohub,2013-02-13 22:02:00,
2013-02-13 14:07:00,63.5,44.6,30.19,West,270,8.0,11.0,50,0.00,,,0.00,meteohub,2013-02-13 22:07:00,
2013-02-13 14:12:00,63.7,46.2,30.19,NW,315,8.0,11.0,53,0.00,,,0.00,meteohub,2013-02-13 22:12:00,
2013-02-13 14:16:00,63.9,46.9,30.18,West,270,8.0,11.0,54,0.00,,,0.00,meteohub,2013-02-13 22:16:00,
2013-02-13 14:22:00,63.5,46.0,30.18,NW,315,9.0,11.0,53,0.00,,,0.00,meteohub,2013-02-13 22:22:00,
2013-02-13 14:27:00,63.9,45.9,30.18,NW,315,7.0,11.0,52,0.00,,,0.00,meteohub,2013-02-13 22:27:00,
2013-02-13 14:32:00,63.9,45.3,30.18,WNW,293,11.0,11.0,51,0.00,,,0.00,meteohub,2013-02-13 22:32:00,
2013-02-13 14:36:00,64.0,45.5,30.18,NW,315,8.0,11.0,51,0.00,,,0.00,meteohub,2013-02-13 22:36:00,
2013-02-13 14:41:00,64.4,45.9,30.17,West,270,9.0,11.0,51,0.00,,,0.00,meteohub,2013-02-13 22:41:00,
2013-02-13 14:47:00,64.4,45.9,30.18,NW,315,8.0,11.0,51,0.00,,,0.00,meteohub,2013-02-13 22:47:00,
2013-02-13 14:51:00,64.4,46.9,30.17,NW,315,8.0,11.0,53,0.00,,,0.00,meteohub,2013-02-13 22:51:00,
2013-02-13 14:57:00,64.6,45.0,30.17,NW,315,11.0,11.0,49,0.00,,,0.00,meteohub,2013-02-13 22:57:00,
2013-02-13 15:02:00,64.2,42.4,30.17,West,270,9.0,11.0,45,0.00,,,0.00,meteohub,2013-02-13 23:02:00,
2013-02-13 15:07:00,64.2,43.0,30.17,NW,315,10.0,11.0,46,0.00,,,0.00,meteohub,2013-02-13 23:07:00,
2013-02-13 15:12:00,64.6,46.0,30.17,SW,225,7.0,11.0,51,0.00,,,0.00,meteohub,2013-02-13 23:12:00,
2013-02-13 15:17:00,64.6,46.0,30.17,West,270,9.0,11.0,51,0.00,,,0.00,meteohub,2013-02-13 23:17:00,
2013-02-13 15:22:00,64.4,45.3,30.17,NW,315,8.0,11.0,50,0.00,,,0.00,meteohub,2013-02-13 23:22:00,
2013-02-13 15:27:00,64.2,44.1,30.17,West,270,10.0,10.0,48,0.00,,,0.00,meteohub,2013-02-13 23:27:00,
2013-02-13 15:32:00,64.6,45.0,30.16,NW,315,5.0,10.0,49,0.00,,,0.00,meteohub,2013-02-13 23:32:00,
2013-02-13 15:37:00,64.9,45.9,30.16,WNW,293,7.0,10.0,50,0.00,,,0.00,meteohub,2013-02-13 23:37:00,
2013-02-13 15:42:00,65.1,46.0,30.16,West,270,7.0,10.0,50,0.00,,,0.00,meteohub,2013-02-13 23:42:00,
2013-02-13 15:47:00,65.1,45.5,30.16,NW,315,6.0,8.0,49,0.00,,,0.00,meteohub,2013-02-13 23:47:00,
2013-02-13 15:52:00,64.8,44.1,30.16,West,270,5.0,9.0,47,0.00,,,0.00,meteohub,2013-02-13 23:52:00,
2013-02-13 15:57:00,64.9,44.8,30.16,West,270,4.0,9.0,48,0.00,,,0.00,meteohub,2013-02-13 23:57:00,
2013-02-13 16:02:00,64.6,46.0,30.16,NW,315,8.0,11.0,51,0.00,,,0.00,meteohub,2013-02-14 00:02:00,
2013-02-13 16:07:00,64.2,46.2,30.16,NW,315,7.0,11.0,52,0.00,,,0.00,meteohub,2013-02-14 00:07:00,
2013-02-13 16:12:00,64.4,47.5,30.15,NW,315,5.0,11.0,54,0.00,,,0.00,meteohub,2013-02-14 00:12:00,
2013-02-13 16:17:00,64.0,48.0,30.15,West,270,4.0,10.0,56,0.00,,,0.00,meteohub,2013-02-14 00:17:00,
2013-02-13 16:22:00,63.7,48.6,30.16,NW,315,5.0,10.0,58,0.00,,,0.00,meteohub,2013-02-14 00:22:00,
2013-02-13 16:27:00,63.9,49.3,30.16,NW,315,4.0,10.0,59,0.00,,,0.00,meteohub,2013-02-14 00:27:00,
2013-02-13 16:32:00,63.9,49.3,30.15,West,270,3.0,8.0,59,0.00,,,0.00,meteohub,2013-02-14 00:32:00,
2013-02-13 16:37:00,64.4,48.9,30.15,NW,315,4.0,7.0,57,0.00,,,0.00,meteohub,2013-02-14 00:37:00,
2013-02-13 16:42:00,64.9,48.9,30.15,NW,315,3.0,6.0,56,0.00,,,0.00,meteohub,2013-02-14 00:42:00,
2013-02-13 16:47:00,65.3,48.7,30.15,NW,315,4.0,4.0,55,0.00,,,0.00,meteohub,2013-02-14 00:47:00,
2013-02-13 16:52:00,64.9,48.9,30.15,West,270,2.0,4.0,56,0.00,,,0.00,meteohub,2013-02-14 00:52:00,
2013-02-13 16:57:00,65.1,49.1,30.15,NW,315,1.0,4.0,56,0.00,,,0.00,meteohub,2013-02-14 00:57:00,
2013-02-13 17:02:00,65.5,49.3,30.15,North,0,2.0,4.0,56,0.00,,,0.00,meteohub,2013-02-14 01:02:00,
2013-02-13 17:07:00,64.0,46.6,30.16,North,0,7.0,7.0,53,0.00,,,0.00,meteohub,2013-02-14 01:07:00,
2013-02-13 17:12:00,62.6,46.2,30.16,North,0,4.0,8.0,55,0.00,,,0.00,meteohub,2013-02-14 01:12:00,
2013-02-13 17:17:00,61.5,46.2,30.16,NE,45,4.0,8.0,57,0.00,,,0.00,meteohub,2013-02-14 01:17:00,
2013-02-13 17:22:00,61.0,45.7,30.16,NE,45,5.0,8.0,57,0.00,,,0.00,meteohub,2013-02-14 01:22:00,
2013-02-13 17:27:00,60.4,44.2,30.16,NW,315,3.0,7.0,55,0.00,,,0.00,meteohub,2013-02-14 01:27:00,
2013-02-13 17:32:00,59.9,43.2,30.16,West,270,4.0,5.0,54,0.00,,,0.00,meteohub,2013-02-14 01:32:00,
2013-02-13 17:37:00,59.5,42.8,30.16,North,0,4.0,6.0,54,0.00,,,0.00,meteohub,2013-02-14 01:37:00,
2013-02-13 17:42:00,59.2,43.0,30.17,NW,315,4.0,6.0,55,0.00,,,0.00,meteohub,2013-02-14 01:42:00,
2013-02-13 17:47:00,58.6,43.5,30.17,North,0,3.0,6.0,57,0.00,,,0.00,meteohub,2013-02-14 01:47:00,
2013-02-13 17:52:00,58.3,44.1,30.17,NNE,23,2.0,7.0,59,0.00,,,0.00,meteohub,2013-02-14 01:52:00,
2013-02-13 17:57:00,57.9,44.1,30.16,NNE,23,3.0,7.0,60,0.00,,,0.00,meteohub,2013-02-14 01:57:00,
2013-02-13 18:02:00,57.4,44.4,30.17,North,0,4.0,7.0,62,0.00,,,0.00,meteohub,2013-02-14 02:02:00,
2013-02-13 18:07:00,57.0,44.1,30.17,North,0,3.0,6.0,62,0.00,,,0.00,meteohub,2013-02-14 02:07:00,
2013-02-13 18:12:00,56.7,44.2,30.17,North,0,2.0,6.0,63,0.00,,,0.00,meteohub,2013-02-14 02:12:00,
2013-02-13 18:17:00,56.1,43.7,30.17,North,0,2.0,6.0,63,0.00,,,0.00,meteohub,2013-02-14 02:17:00,
2013-02-13 18:22:00,55.9,43.9,30.17,North,0,3.0,4.0,64,0.00,,,0.00,meteohub,2013-02-14 02:22:00,
2013-02-13 18:27:00,55.6,43.5,30.17,NE,45,1.0,4.0,64,0.00,,,0.00,meteohub,2013-02-14 02:27:00,
2013-02-13 18:32:00,55.2,44.4,30.17,NE,45,2.0,3.0,67,0.00,,,0.00,meteohub,2013-02-14 02:32:00,
2013-02-13 18:37:00,54.9,45.0,30.17,NE,45,2.0,3.0,69,0.00,,,0.00,meteohub,2013-02-14 02:37:00,
2013-02-13 18:42:00,54.7,45.5,30.17,NE,45,2.0,3.0,71,0.00,,,0.00,meteohub,2013-02-14 02:42:00,
2013-02-13 18:47:00,54.5,45.7,30.17,NE,45,2.0,3.0,72,0.00,,,0.00,meteohub,2013-02-14 02:47:00,
2013-02-13 18:52:00,54.1,45.3,30.17,NE,45,1.0,3.0,72,0.00,,,0.00,meteohub,2013-02-14 02:52:00,
2013-02-13 18:57:00,53.6,45.1,30.17,NE,45,1.0,2.0,73,0.00,,,0.00,meteohub,2013-02-14 02:57:00,
2013-02-13 19:02:00,53.2,45.1,30.17,NE,45,1.0,2.0,74,0.00,,,0.00,meteohub,2013-02-14 03:02:00,
2013-02-13 19:07:00,52.9,45.5,30.17,NE,45,0.0,2.0,76,0.00,,,0.00,meteohub,2013-02-14 03:07:00,
2013-02-13 19:12:00,52.9,45.5,30.17,NE,45,0.0,2.0,76,0.00,,,0.00,meteohub,2013-02-14 03:12:00,
2013-02-13 19:17:00,52.9,45.9,30.17,NE,45,0.0,2.0,77,0.00,,,0.00,meteohub,2013-02-14 03:17:00,
2013-02-13 19:22:00,52.7,46.0,30.18,NE,45,1.0,2.0,78,0.00,,,0.00,meteohub,2013-02-14 03:22:00,
2013-02-13 19:27:00,52.3,45.3,30.17,NE,45,0.0,2.0,77,0.00,,,0.00,meteohub,2013-02-14 03:27:00,
2013-02-13 19:32:00,52.2,45.9,30.17,NE,45,2.0,2.0,79,0.00,,,0.00,meteohub,2013-02-14 03:32:00,
2013-02-13 19:37:00,52.5,46.2,30.17,NE,45,0.0,2.0,79,0.00,,,0.00,meteohub,2013-02-14 03:37:00,
2013-02-13 19:42:00,52.2,45.5,30.18,NE,45,0.0,2.0,78,0.00,,,0.00,meteohub,2013-02-14 03:42:00,
2013-02-13 19:47:00,51.6,45.3,30.17,NE,45,0.0,2.0,79,0.00,,,0.00,meteohub,2013-02-14 03:47:00,
2013-02-13 19:52:00,51.6,45.3,30.17,NE,45,0.0,1.0,79,0.00,,,0.00,meteohub,2013-02-14 03:52:00,
2013-02-13 19:57:00,51.3,45.3,30.17,NE,45,0.0,1.0,80,0.00,,,0.00,meteohub,2013-02-14 03:57:00,
2013-02-13 20:02:00,51.1,45.1,30.17,NE,45,0.0,0.0,80,0.00,,,0.00,meteohub,2013-02-14 04:02:00,
2013-02-13 20:07:00,50.7,45.1,30.17,NE,45,0.0,0.0,81,0.00,,,0.00,meteohub,2013-02-14 04:07:00,
2013-02-13 20:12:00,50.5,45.0,30.17,NE,45,0.0,0.0,81,0.00,,,0.00,meteohub,2013-02-14 04:12:00,
2013-02-13 20:17:00,50.7,45.7,30.18,NE,45,0.0,0.0,83,0.00,,,0.00,meteohub,2013-02-14 04:17:00,
2013-02-13 20:22:00,50.2,45.1,30.18,NE,45,0.0,0.0,83,0.00,,,0.00,meteohub,2013-02-14 04:22:00,
2013-02-13 20:27:00,50.2,45.5,30.17,NE,45,0.0,0.0,84,0.00,,,0.00,meteohub,2013-02-14 04:27:00,
2013-02-13 20:32:00,49.8,44.8,30.18,NE,45,0.0,0.0,83,0.00,,,0.00,meteohub,2013-02-14 04:32:00,
2013-02-13 20:36:00,49.5,44.8,30.18,NE,45,0.0,0.0,84,0.00,,,0.00,meteohub,2013-02-14 04:36:00,
2013-02-13 20:42:00,49.3,45.0,30.18,NE,45,0.0,0.0,85,0.00,,,0.00,meteohub,2013-02-14 04:42:00,
2013-02-13 20:47:00,49.3,45.0,30.18,NE,45,0.0,0.0,85,0.00,,,0.00,meteohub,2013-02-14 04:47:00,
2013-02-13 20:52:00,48.9,45.1,30.18,NE,45,0.0,0.0,87,0.00,,,0.00,meteohub,2013-02-14 04:52:00,
2013-02-13 20:57:00,48.9,45.1,30.18,NE,45,0.0,0.0,87,0.00,,,0.00,meteohub,2013-02-14 04:57:00,
2013-02-13 21:00:00,48.9,45.1,30.19,NE,45,2.0,0.0,87,0.00,,,0.00,meteohub,2013-02-14 05:00:00,
2013-02-13 21:05:00,49.3,45.9,30.18,NE,45,1.0,2.0,88,0.00,,,0.00,meteohub,2013-02-14 05:05:00,
2013-02-13 21:10:00,49.3,45.5,30.18,NE,45,1.0,2.0,87,0.00,,,0.00,meteohub,2013-02-14 05:10:00,
2013-02-13 21:15:00,49.1,45.3,30.18,NE,45,0.0,2.0,87,0.00,,,0.00,meteohub,2013-02-14 05:15:00,
2013-02-13 21:20:00,48.9,45.5,30.18,NE,45,2.0,2.0,88,0.00,,,0.00,meteohub,2013-02-14 05:20:00,
2013-02-13 21:25:00,49.1,45.3,30.18,NE,45,2.0,2.0,87,0.00,,,0.00,meteohub,2013-02-14 05:25:00,
2013-02-13 21:30:00,49.1,45.3,30.18,NE,45,0.0,2.0,87,0.00,,,0.00,meteohub,2013-02-14 05:30:00,
2013-02-13 21:35:00,48.7,45.0,30.18,NE,45,0.0,2.0,87,0.00,,,0.00,meteohub,2013-02-14 05:35:00,
2013-02-13 21:40:00,48.6,44.6,30.18,NE,45,0.0,2.0,86,0.00,,,0.00,meteohub,2013-02-14 05:40:00,
2013-02-13 21:45:00,48.2,44.6,30.19,NE,45,0.0,0.0,87,0.00,,,0.00,meteohub,2013-02-14 05:45:00,
2013-02-13 21:50:00,48.4,44.8,30.19,NE,45,0.0,0.0,87,0.00,,,0.00,meteohub,2013-02-14 05:50:00,
2013-02-13 21:55:00,48.6,44.8,30.18,NE,45,0.0,0.0,87,0.00,,,0.00,meteohub,2013-02-14 05:55:00,
2013-02-13 22:00:00,48.4,44.8,30.18,NE,45,0.0,0.0,87,0.00,,,0.00,meteohub,2013-02-14 06:00:00,
2013-02-13 22:05:00,48.2,44.6,30.19,NE,45,0.0,0.0,87,0.00,,,0.00,meteohub,2013-02-14 06:05:00,
2013-02-13 22:10:00,48.0,44.4,30.19,NE,45,0.0,0.0,87,0.00,,,0.00,meteohub,2013-02-14 06:10:00,
2013-02-13 22:15:00,48.0,44.4,30.19,NE,45,0.0,0.0,87,0.00,,,0.00,meteohub,2013-02-14 06:15:00,
2013-02-13 22:20:00,47.8,44.4,30.19,NE,45,0.0,0.0,88,0.00,,,0.00,meteohub,2013-02-14 06:20:00,
2013-02-13 22:25:00,47.5,44.1,30.19,NE,45,0.0,0.0,88,0.00,,,0.00,meteohub,2013-02-14 06:25:00,
2013-02-13 22:30:00,47.5,44.1,30.19,NE,45,0.0,0.0,88,0.00,,,0.00,meteohub,2013-02-14 06:30:00,
2013-02-13 22:35:00,47.3,44.2,30.19,NE,45,0.0,0.0,89,0.00,,,0.00,meteohub,2013-02-14 06:35:00,
2013-02-13 22:40:00,47.5,44.4,30.19,NE,45,0.0,0.0,89,0.00,,,0.00,meteohub,2013-02-14 06:40:00,
2013-02-13 22:45:00,47.7,44.6,30.19,NE,45,0.0,0.0,89,0.00,,,0.00,meteohub,2013-02-14 06:45:00,
2013-02-13 22:50:00,47.3,43.9,30.19,NE,45,0.0,0.0,88,0.00,,,0.00,meteohub,2013-02-14 06:50:00,
2013-02-13 22:55:00,47.1,44.1,30.19,NE,45,2.0,2.0,89,0.00,,,0.00,meteohub,2013-02-14 06:55:00,
2013-02-13 23:00:00,47.3,44.2,30.19,NE,45,0.0,2.0,89,0.00,,,0.00,meteohub,2013-02-14 07:00:00,
2013-02-13 23:05:00,47.7,44.6,30.19,NE,45,0.0,2.0,89,0.00,,,0.00,meteohub,2013-02-14 07:05:00,
2013-02-13 23:11:00,47.7,44.6,30.19,NE,45,0.0,2.0,89,0.00,,,0.00,meteohub,2013-02-14 07:11:00,
2013-02-13 23:16:00,47.7,44.6,30.19,NE,45,0.0,1.0,89,0.00,,,0.00,meteohub,2013-02-14 07:16:00,
2013-02-13 23:21:00,47.5,44.4,30.19,NE,45,0.0,1.0,89,0.00,,,0.00,meteohub,2013-02-14 07:21:00,
2013-02-13 23:26:00,47.1,44.1,30.19,NE,45,0.0,1.0,89,0.00,,,0.00,meteohub,2013-02-14 07:26:00,
2013-02-13 23:31:00,46.9,43.9,30.19,NE,45,0.0,0.0,89,0.00,,,0.00,meteohub,2013-02-14 07:31:00,
2013-02-13 23:36:00,46.8,43.7,30.19,NE,45,0.0,0.0,89,0.00,,,0.00,meteohub,2013-02-14 07:36:00,
2013-02-13 23:41:00,46.4,43.3,30.20,NE,45,0.0,0.0,89,0.00,,,0.00,meteohub,2013-02-14 07:41:00,
2013-02-13 23:46:00,46.0,43.3,30.19,NE,45,0.0,0.0,90,0.00,,,0.00,meteohub,2013-02-14 07:46:00,
2013-02-13 23:51:00,46.0,43.3,30.19,NE,45,0.0,0.0,90,0.00,,,0.00,meteohub,2013-02-14 07:51:00,
2013-02-13 23:56:00,45.9,43.2,30.19,NE,45,0.0,0.0,90,0.00,,,0.00,meteohub,2013-02-14 07:56:00,